Powrót do katalogu

BREEZE-M DEB

AktywnyHEO
NORAD 38597·DEBRIS·🇷🇺 Russia

Wystrzelony Mar 14, 2008 z Baikonur Cosmodrome

Loading…

Następne Przeloty (najbliższe 24 godziny)

TLE

ŚwieżeSource: Space-Track

Epoka: Sep 14, 2026, 04:34 UTC

1 38597U 08011AU  26257.19085821  .00009459  00000-0  19896-1 0  9999
2 38597  48.5871 280.3564 6036211 232.2966  56.1723  3.82557305 35374

Śledź BREEZE-M DEB w czasie rzeczywistym z AllMySat

Download on the App Store